Flag for United Kingdom Weather past 2 weeks in Huddersfield, England, United Kingdom

Now
37 °F

Scattered clouds.


Feels Like: 27 °F
Forecast: N/A
Wind: 20 mph from Southwest

Location: Leeds And Bradford

Current Time: Mar 3, 2015 at 5:32:30 PM

Latest Report: Mar 3, 2015 at 4:50 PM


Visibility: N/A

Pressure: 29.83 "Hg

Humidity: 70%

Dew point: 28 °F

Location of HuddersfieldLocation

Historic Weather in Huddersfield — Graph

°F

Huddersfield temperature yesterday

Maximum temperature yesterday: 39 °F (at 1:20 PM)
Minimum temperature yesterday: 32 °F (at 7:20 AM)
Average temperature yesterday: 35 °F

Past Weeks' High & Low Weather Summary

 TemperatureHumidityPressure
High50 °F (Feb 18, 1:50 PM)100% (Feb 18, 7:50 AM)30.60 "Hg (Feb 18, 7:50 AM)
Low30 °F (Feb 17, 1:50 AM)57% (Feb 23, 2:20 PM)28.91 "Hg (Feb 23, 6:20 PM)
Average39 °F87%29.70 "Hg
* Reported Feb 16 4:20 PM — Mar 3 4:20 PM, Huddersfield, Weather by CustomWeather, © 2015

Note: Actual official high and low records may vary slightly from our data, if they occured in-between our weather recording intervals... More about our weather records

Advertising

Huddersfield weather history for previous 24 hours

 ConditionsComfort  
Time TempWeatherWind HumidityBarometerVisibility
4:20 PM
Tue, Mar 3
37 °FScattered clouds.20 mph70%29.83 "HgN/A
3:50 PM39 °FScattered clouds.25 mph65%29.83 "HgN/A
3:20 PM41 °FScattered clouds.21 mph61%29.83 "HgN/A
2:50 PM39 °FScattered clouds.24 mph65%29.80 "HgN/A
2:20 PM39 °FScattered clouds.23 mph65%29.80 "HgN/A
1:50 PM41 °FScattered clouds.23 mph66%29.80 "HgN/A
1:20 PM39 °FScattered clouds.24 mph65%29.80 "HgN/A
12:50 PM39 °FScattered clouds.20 mph75%29.80 "HgN/A
12:20 PM36 °FSnow. Partly sunny.20 mph87%29.80 "HgN/A
11:50 AM37 °FScattered showers. Scattered clouds.18 mph75%29.80 "HgN/A
11:20 AM37 °FScattered showers. Passing clouds.16 mph81%29.80 "HgN/A
10:50 AM37 °FScattered showers. Passing clouds.17 mph75%29.77 "HgN/A
10:20 AM36 °FScattered clouds.14 mph87%29.77 "HgN/A
9:50 AM34 °FSprinkles. Scattered clouds.13 mph93%29.77 "Hg4 mi
9:20 AM36 °FScattered clouds.14 mph87%29.77 "HgN/A
8:50 AM34 °FScattered clouds.12 mph93%29.77 "HgN/A
8:20 AM36 °FSnow flurries. Scattered clouds.15 mph87%29.74 "HgN/A
7:50 AM34 °FSnow flurries. Scattered clouds.14 mph93%29.74 "HgN/A
7:20 AM34 °FScattered clouds.14 mph93%29.74 "HgN/A
6:50 AM34 °FPassing clouds.9 mph93%29.71 "HgN/A
6:20 AM34 °FSnow flurries. Passing clouds.9 mph93%29.74 "HgN/A
5:50 AM34 °FLight snow. Passing clouds.9 mph87%29.74 "HgN/A
5:20 AM32 °FPassing clouds.7 mph93%29.74 "HgN/A
4:50 AM34 °FPassing clouds.9 mph87%29.74 "HgN/A
4:20 AM34 °FPassing clouds.10 mph87%29.74 "HgN/A
3:50 AM32 °FPassing clouds.6 mph93%29.74 "HgN/A
3:20 AM32 °FPassing clouds.7 mph93%29.74 "HgN/A
2:50 AM34 °FPassing clouds.9 mph87%29.74 "HgN/A
2:20 AM34 °FPassing clouds.14 mph87%29.74 "HgN/A
1:50 AM34 °FPassing clouds.15 mph87%29.74 "HgN/A
1:20 AM34 °FPassing clouds.15 mph87%29.77 "HgN/A
12:50 AM34 °FPassing clouds.13 mph87%29.77 "HgN/A
12:20 AM34 °FPassing clouds.14 mph87%29.77 "HgN/A
11:50 PM
Mon, Mar 2
34 °FPassing clouds.12 mph87%29.77 "HgN/A
11:20 PM34 °FPassing clouds.12 mph93%29.77 "HgN/A
10:50 PM34 °FSnow flurries. Passing clouds.13 mph93%29.74 "HgN/A
10:20 PM34 °FPassing clouds.12 mph93%29.74 "HgN/A
9:50 PM32 °FLight snow. Passing clouds.7 mph100%29.74 "HgN/A
9:20 PM34 °FSnow. Fog.12 mph93%29.74 "Hg1 mi
8:50 PM34 °FPassing clouds.8 mph93%29.74 "HgN/A
8:20 PM34 °FPassing clouds.7 mph93%29.74 "HgN/A
7:50 PM34 °FPassing clouds.9 mph93%29.74 "HgN/A
7:20 PM34 °FSleet. Passing clouds.15 mph93%29.74 "Hg5 mi
6:50 PM36 °FPassing clouds.16 mph75%29.71 "HgN/A
6:20 PM36 °FPassing clouds.17 mph75%29.71 "HgN/A
5:50 PM36 °FPassing clouds.17 mph75%29.71 "HgN/A
5:20 PM37 °FPassing clouds.24 mph70%29.71 "HgN/A
Weather by CustomWeather, © 2015

See weather overviewHow to use our weather pages